Terminal Aerodrome Forecast
Issued by NWS Duluth, MN

Home | Current Version | Previous Version | Text Only | Print | Product List | Glossary On
Versions: 1 2 3 4 5 6 7 8 9 10 11 12 13 14 15 16 17 18 19 20 21 22 23 24
034
FTUS43 KDLH 171139
TAFINL
TAF
KINL 171139Z 1712/1812 VRB03KT P6SM SCT250
     FM171500 20005KT P6SM BKN250
     FM180200 20006KT P6SM BKN250 WS020/24035KT
     FM180600 22006KT P6SM SCT050 BKN120=

USA.gov is the U.S. government's official web portal to all federal, state and local government web resources and services.